This is the latest recevied weather packets stored in our database for station/object PD2BVG. If no packets are shown the sender has not sent any weather packets the latest 10 day(s).
| Time | Temp. | Humidity | Pressure | Rain* | Wind** | Luminosity | Snow |
|---|---|---|---|---|---|---|---|
| 1777630134 | 19.44° C | 35% | 1023.7 hPa | 0 mm | - | 770 W/m² | - |
| 1777630075 | 19.44° C | 35% | 1023.7 hPa | 0 mm | - | 770 W/m² | - |
| 1777630014 | 19.44° C | 34% | 1023.6 hPa | 0 mm | - | 768 W/m² | - |
| 1777629954 | 19.44° C | 34% | 1023.7 hPa | 0 mm | - | 770 W/m² | - |
| 1777629894 | 19.44° C | 38% | 1023.6 hPa | 0 mm | - | 767 W/m² | - |
| 1777629836 | 19.44° C | 36% | 1023.6 hPa | 0 mm | - | 767 W/m² | - |
| 1777629778 | 19.44° C | 35% | 1023.8 hPa | 0 mm | - | 763 W/m² | - |
| 1777629717 | 19.44° C | 35% | 1023.8 hPa | 0 mm | - | 761 W/m² | - |
| 1777629655 | 19.44° C | 35% | 1023.8 hPa | 0 mm | - | 761 W/m² | - |
| 1777629595 | 19.44° C | 35% | 1023.8 hPa | 0 mm | - | 758 W/m² | - |
| 1777629534 | 19.44° C | 34% | 1023.8 hPa | 0 mm | - | 758 W/m² | - |
| 1777629474 | 19.44° C | 34% | 1023.8 hPa | 0 mm | - | 754 W/m² | - |
| 1777629414 | 19.44° C | 35% | 1023.8 hPa | 0 mm | - | 747 W/m² | - |
| 1777629355 | 19.44° C | 35% | 1023.7 hPa | 0 mm | - | 740 W/m² | - |
| 1777629294 | 19.44° C | 36% | 1023.7 hPa | 0 mm | - | 710 W/m² | - |
| 1777629235 | 19.44° C | 37% | 1023.8 hPa | 0 mm | - | 710 W/m² | - |
| 1777629176 | 19.44° C | 37% | 1023.9 hPa | 0 mm | - | 700 W/m² | - |
| 1777629116 | 18.89° C | 37% | 1023.9 hPa | 0 mm | - | 691 W/m² | - |
| 1777629054 | 18.89° C | 35% | 1023.8 hPa | 0 mm | - | 679 W/m² | - |
| 1777628994 | 18.89° C | 35% | 1023.9 hPa | 0 mm | - | 640 W/m² | - |
| 1777628935 | 18.89° C | 36% | 1023.9 hPa | 0 mm | - | 640 W/m² | - |
| 1777628874 | 18.89° C | 35% | 1023.8 hPa | 0 mm | - | 626 W/m² | - |
| 1777628815 | 18.89° C | 35% | 1023.8 hPa | 0 mm | - | 614 W/m² | - |
| 1777628754 | 18.89° C | 35% | 1023.9 hPa | 0 mm | - | 610 W/m² | - |
| 1777628695 | 18.89° C | 37% | 1023.9 hPa | 0 mm | - | 596 W/m² | - |
* Rain latest hour (hover to see other rain measurements)
** Current wind speed in m/s (hover to see current wind gust speed)